Content
SEND FEEDBACK

Daily
Averages
Monthly
Summary
United Kingdom

PENDENNIS CASTLE, ENGLAND


Home > Europe > United Kingdom > England
Elevation: 115 feet     Latitude: 50 09N     Longitude: 005 04W

WEATHER
 
SELECT A DAY
Number of Records: 180,351;   Date Range: 7/1/96 - 9/16/14
 
SHARE

PRINT THIS DATA

[ ← Previous Day ]
WEATHER ALMANAC - OCTOBER 8, 2013
[ Next Day → ]
[ °C ]   °F
We're sorry. There is no daily almanac available for Pendennis Castle, England on October 8, 2013.
WEATHER BY HOUR - OCTOBER 8, 2013
[ °C ]   °F
Local TimeTemperatureDewpointHumidityBarometerVisibilityWind DirectionWind SpeedGust SpeedPrecipitationEventsConditions
12:50 AM59.0 °F59.0 °F100 %30.27 in0.4 miSW (220°)6.9 mphFogFog
1:50 AM59.0 °F59.0 °F100 %30.27 in0.4 miSW (230°)4.6 mphFogFog
2:50 AM59.0 °F59.0 °F100 %30.27 in0.3 miSW (230°)5.8 mphFogFog
3:50 AM59.0 °F59.0 °F99 %30.29 in0.0 miSW (220°)8.1 mphFogHeavy Fog
3:50 AM59.0 °F59.0 °F100 %30.27 in0.2 miSW (220°)8.1 mphFogFog
4:50 AM59.0 °F59.0 °F100 %30.27 in0.2 miSW (230°)4.6 mphFogFog
5:50 AM57.2 °F57.2 °F100 %30.27 in0.4 miSW (220°)6.9 mphFogFog
6:50 AM59.0 °F59.0 °F100 %30.27 in0.5 miWSW (240°)5.8 mphFogPatches of Fog
6:50 AM58.0 °F58.0 °F100 %30.30 in0.0 miWSW (240°)5.8 mphFogPatches of Fog
7:50 AM59.0 °F59.0 °F100 %30.30 in2.5 miWSW (240°)6.9 mphScattered Clouds
8:50 AM59.0 °F59.0 °F100 %30.30 in2.5 miSW (230°)9.2 mphScattered Clouds
9:50 AM61.0 °F60.0 °F94 %30.32 in3.0 miWSW (240°)9.2 mphMist
9:50 AM60.8 °F59.0 °F94 %30.30 in3.1 miWSW (240°)9.2 mphScattered Clouds
10:50 AM62.6 °F60.8 °F94 %30.30 in4.3 miWSW (240°)10.4 mphHaze
11:50 AM60.8 °F60.8 °F100 %30.33 in2.5 miWSW (240°)10.4 mphRainLight Rain
12:50 PM60.8 °F60.8 °F100 %30.30 in0.9 miSW (230°)11.5 mphLight Drizzle
12:50 PM60.0 °F60.0 °F100 %30.32 in1.0 miSW (230°)11.5 mphRainLight Drizzle
1:50 PM60.8 °F60.8 °F100 %30.30 in1.9 miWSW (240°)10.4 mphRainLight Rain
2:10 PM60.8 °F60.8 °F100 %30.30 in1.9 miWSW (240°)8.1 mphMostly Cloudy
2:50 PM60.8 °F60.8 °F100 %30.30 in3.1 miWSW (250°)6.9 mphMostly Cloudy
3:50 PM61.0 °F61.0 °F98 %30.32 in3.0 miWSW (250°)8.1 mphMist
3:50 PM60.8 °F60.8 °F100 %30.30 in2.8 miWSW (250°)8.1 mphMostly Cloudy
4:33 PM60.8 °F60.8 °F100 %30.30 in0.6 miWest (270°)6.9 mphRainRain
4:50 PM60.8 °F60.8 °F100 %30.30 in0.5 miWest (260°)8.1 mphLight Drizzle
5:50 PM60.8 °F60.8 °F100 %30.30 in0.7 miWest (260°)6.9 mphLight Drizzle
6:50 PM60.0 °F60.0 °F100 %30.32 in0.0 miWest (270°)6.9 mphRainLight Drizzle
6:50 PM60.8 °F60.8 °F100 %30.30 in0.2 miWest (270°)6.9 mphLight Drizzle
7:50 PM59.0 °F59.0 °F100 %30.30 in1.9 miNNW (330°)4.6 mphLight Drizzle
8:50 PM59.0 °F59.0 °F100 %30.33 in1.6 miNNW (330°)3.5 mphLight Drizzle
9:50 PM58.0 °F58.0 °F100 %30.35 in2.0 miNNW (340°)5.8 mphRainLight Drizzle
9:50 PM59.0 °F59.0 °F100 %30.33 in1.9 miNNW (340°)5.8 mphLight Drizzle
10:50 PM59.0 °F57.2 °F94 %30.33 in2.2 miNorth (10°)4.6 mphRainLight Rain
11:50 PM57.2 °F57.2 °F100 %30.30 in2.2 miNNW (340°)4.6 mphMostly Cloudy
Hourly data recorded from EGDR, located miles away from Pendennis Castle, England







STORIES FROM OUR PARTNERS